Temp
54 49 45 50 50 49 47 45 44 48 53 49 50 51 55 60 53 51 53 50 48 47 50 51 51 51 52 51 51 50 50 49 50 51 53 55 54 57 59 57 55 55 55 56
49 44 50 51 49 48 47 44 45 48 52 51 50 50 55 50 46 46 48 47 47 48 50 50 50 50 49 49 49 49 48 48 48 49 50 51 52 55 56 54 54 53 53 54
46 50 52 50 47 45 45 43 44 44 49 51 49 48 46 45 46 46 46 47 47 47 47 48 49 47 48 47 47 47 48 47 46 46 48 50 52 53 53 50 51 50 51 52
47 53 49 47 47 48 40 49 48 45 43 38 48 36 44 44 41 43 43 45 46 47 49 48 48 46 45 44 45 45 46 46 46 46 45 44 43 43 45 46 48 49 50 50
47 47 46 45 47 50 45 50 48 46 43 40 42 38 41 43 40 40 42 44 46 48 49 48 48 46 44 44 43 43 43 43 43 45 45 44 43 44 46 45 45 47 48 49
48 53 51 51 51 50 52 48 45 43 42 33 41 41 40 41 45 42 44 45 47 48 48 47 46 46 45 46 44 43 41 42 41 42 43 43 41 41 41 42 42 44 46 46
45 47 51 53 47 49 49 43 34 32 31 32 41 37 44 46 46 47 44 46 48 47 46 44 44 43 43 42 41 42 42 40 41 40 42 42 41 41 40 40 39 39 41 43
38 37 46 50 49 45 43 43 35 26 28 34 39 35 43 46 48 48 47 48 47 45 44 43 42 42 41 40 40 40 40 40 41 41 40 42 42 41 40 40 39 39 40 41
38 38 49 49 50 52 42 39 45 37 35 31 39 43 44 45 43 44 45 46 45 44 42 41 41 41 40 39 39 37 38 39 39 38 37 39 40 39 39 40 40 39 41 42
45 38 46 49 51 49 46 48 37 35 26 25 34 36 39 39 42 43 43 45 46 43 40 39 39 39 39 39 40 39 38 37 37 37 37 37 38 38 39 38 37 38 39 39
46 41 41 46 43 43 41 40 40 40 35 28 28 37 46 46 47 45 45 47 48 42 37 38 38 39 38 39 39 37 36 35 36 36 36 36 36 36 37 37 36 36 37 37
47 41 35 40 46 47 45 43 43 34 32 34 33 36 45 47 48 48 47 45 44 38 35 37 37 38 37 37 37 36 35 34 34 35 35 35 35 35 35 35 35 36 35 36
42 37 33 36 40 43 37 42 43 41 40 35 28 36 44 46 46 47 42 39 37 35 35 36 36 36 35 35 35 35 35 34 34 35 34 34 33 33 33 33 33 34 34 35
45 38 35 31 37 41 36 39 42 40 33 36 36 40 44 43 43 41 41 38 36 36 35 36 35 34 34 34 34 34 34 34 33 33 32 32 31 31 32 32 32 33 34 34
42 34 37 39 40 41 40 40 40 37 40 34 39 38 45 45 45 45 39 36 34 34 35 34 33 33 33 34 34 34 32 32 32 30 29 28 29 30 30 30 30 31 32 33
39 33 35 34 39 39 36 39 40 40 40 40 42 40 42 37 38 36 36 36 33 33 32 31 32 32 32 32 32 32 30 29 30 29 27 27 28 28 27 28 29 29 30 29
37 34 32 28 35 32 28 36 38 40 42 41 34 42 38 35 36 36 36 36 34 32 30 30 30 30 30 30 31 30 29 30 28 27 27 26 26 26 26 27 27 27 28 29
35 32 33 29 29 22 39 38 39 38 40 40 37 36 37 37 34 35 37 35 32 31 29 29 29 29 29 30 31 31 30 28 27 26 26 26 25 25 27 26 26 26 29 28
41 36 30 27 27 33 37 34 32 33 36 39 37 32 31 32 33 28 33 34 31 29 27 27 28 28 29 30 31 30 28 27 27 25 25 25 25 24 25 25 25 26 27 27
39 39 31 28 23 21 32 35 39 38 29 35 36 33 31 32 27 31 30 30 27 26 26 25 28 30 29 29 31 29 27 26 25 25 25 26 26 25 24 26 25 26 26 25
31 30 28 29 25 31 38 36 39 28 31 34 37 35 32 30 33 28 27 26 27 27 28 29 28 27 28 30 30 28 27 25 27 27 27 26 27 26 26 27 27 25 25 25
32 28 27 28 24 23 36 35 32 34 32 35 34 34 33 27 25 25 25 25 27 27 29 30 29 28 28 29 28 27 26 28 29 28 26 25 25 27 27 26 26 25 25 23
29 34 30 32 32 32 37 32 33 35 34 32 32 30 32 27 26 26 25 26 28 28 29 30 30 28 29 30 30 27 27 30 29 28 27 26 25 25 27 26 25 26 25 24
35 37 32 32 31 32 32 32 33 34 34 32 32 30 30 26 26 25 26 27 28 29 28 29 28 27 27 30 30 30 31 30 29 28 27 27 26 25 26 28 27 26 25 24
34 35 32 31 29 31 32 33 32 31 30 28 28 29 29 28 26 27 27 27 28 28 28 29 28 27 27 29 29 30 31 32 30 28 28 27 27 26 25 24 26 26 26 26
34 33 32 33 35 36 33 32 33 30 28 28 26 25 28 29 27 28 26 27 28 27 28 28 28 27 27 28 27 28 30 30 28 27 26 25 25 25 24 24 23 25 26 27
MSLP
1016.34 1016.44 1016.25 1016.09 1016.55 1016.72 1016.74 1016.69 1016.57 1016.36 1016.06 1015.89 1015.17 1014.92 1014.71 1014.47 1015.24 1015.75 1016.19 1017.17 1018.11 1018.73 1019.30 1019.35 1019.42 1019.39 1019.24 1019.18 1019.04 1018.93 1018.65 1018.44 1017.81 1017.15 1016.47 1015.87 1015.77 1015.69 1015.57 1015.84 1016.03 1015.85 1015.80 1015.27
1016.61 1016.29 1016.33 1016.54 1016.77 1017.03 1016.87 1016.69 1016.41 1016.25 1015.87 1015.69 1015.14 1014.91 1014.79 1015.65 1016.65 1017.44 1017.57 1018.06 1018.63 1019.05 1019.24 1019.54 1019.60 1019.69 1019.69 1019.81 1019.83 1019.70 1019.61 1019.42 1019.02 1018.58 1018.43 1017.95 1017.23 1016.43 1016.08 1016.40 1016.45 1016.32 1016.10 1015.85
1015.96 1015.87 1015.92 1016.40 1016.59 1016.67 1016.81 1016.70 1016.35 1016.28 1015.92 1015.57 1015.23 1014.81 1015.77 1016.85 1017.62 1018.15 1018.73 1018.99 1019.27 1019.45 1019.56 1019.68 1019.83 1020.01 1020.16 1020.08 1020.20 1020.23 1020.28 1020.19 1019.98 1019.58 1018.96 1018.35 1017.75 1017.24 1016.66 1016.80 1016.73 1016.75 1016.35 1016.37
1015.97 1015.48 1015.80 1016.10 1016.03 1016.34 1016.54 1016.15 1016.33 1016.22 1016.11 1015.65 1015.86 1015.20 1015.66 1016.73 1017.89 1018.52 1019.03 1019.34 1019.51 1019.65 1019.70 1019.76 1019.91 1020.16 1020.42 1020.63 1020.74 1020.71 1020.65 1020.62 1020.40 1020.15 1019.64 1019.27 1018.82 1018.27 1018.13 1017.73 1017.20 1016.77 1016.40 1016.67
1015.37 1015.41 1015.46 1015.43 1015.38 1015.88 1015.92 1016.05 1016.29 1016.24 1016.21 1016.03 1015.83 1015.97 1015.39 1016.67 1017.49 1018.34 1018.99 1019.29 1019.45 1019.65 1019.80 1019.99 1020.49 1020.91 1021.24 1021.34 1021.33 1021.11 1020.97 1020.97 1020.84 1020.58 1020.25 1019.75 1019.38 1019.01 1018.42 1017.99 1017.30 1017.03 1016.72 1016.79
1015.48 1015.45 1015.29 1015.05 1015.07 1015.34 1015.74 1016.01 1016.32 1016.63 1016.45 1015.74 1015.12 1015.43 1014.89 1015.76 1016.18 1017.64 1018.53 1019.04 1019.41 1019.67 1020.05 1020.41 1020.90 1021.23 1021.45 1021.59 1021.67 1021.56 1021.26 1021.32 1021.36 1021.05 1020.69 1020.24 1019.83 1019.36 1018.90 1018.58 1017.93 1017.38 1016.72 1016.67
1015.27 1014.97 1014.75 1014.83 1015.22 1015.49 1015.78 1016.25 1016.32 1016.34 1016.29 1015.38 1015.17 1015.18 1013.98 1015.03 1015.79 1016.31 1017.49 1018.39 1019.13 1019.74 1020.35 1020.76 1021.12 1021.33 1021.62 1021.87 1021.74 1021.64 1021.60 1021.45 1021.37 1021.19 1021.00 1020.50 1020.20 1019.76 1019.40 1019.01 1018.28 1017.88 1017.03 1016.48
1014.99 1014.71 1014.39 1014.48 1014.50 1014.81 1015.52 1015.86 1015.94 1015.60 1015.82 1015.54 1015.59 1014.45 1013.74 1014.84 1015.60 1016.53 1017.45 1018.21 1019.00 1019.75 1020.55 1021.12 1021.63 1021.90 1022.16 1022.07 1022.06 1021.88 1022.11 1021.39 1021.42 1021.33 1021.40 1020.75 1020.39 1019.89 1019.38 1019.09 1018.65 1018.09 1017.30 1016.71
1014.85 1014.67 1014.11 1014.12 1014.20 1014.68 1015.47 1015.63 1015.60 1015.65 1016.17 1015.75 1014.58 1013.84 1014.14 1014.83 1015.77 1016.66 1017.27 1018.06 1018.88 1019.87 1020.90 1021.68 1022.25 1022.49 1022.49 1022.53 1022.54 1022.68 1022.48 1021.93 1021.92 1021.80 1021.60 1020.95 1020.69 1020.08 1019.56 1019.24 1018.70 1018.07 1017.39 1016.62
1014.78 1014.56 1014.27 1014.08 1014.29 1014.76 1014.84 1015.10 1015.68 1016.00 1015.83 1015.06 1013.92 1013.58 1013.21 1014.07 1014.63 1015.92 1016.75 1017.55 1018.58 1019.76 1021.17 1022.00 1022.41 1022.69 1022.91 1023.11 1023.11 1022.93 1022.86 1022.62 1022.56 1022.31 1022.02 1021.60 1021.03 1020.57 1020.02 1019.48 1018.90 1018.23 1017.51 1016.83
1015.29 1015.47 1014.96 1014.74 1014.47 1014.29 1015.03 1015.04 1015.30 1015.54 1015.89 1015.07 1013.86 1012.56 1012.44 1012.84 1013.52 1014.50 1015.89 1017.21 1018.47 1019.85 1021.16 1022.11 1022.64 1022.88 1023.22 1023.43 1023.43 1023.36 1023.32 1023.28 1022.91 1022.73 1022.52 1022.06 1021.53 1021.02 1020.28 1019.67 1019.06 1018.51 1017.71 1016.91
1015.21 1015.33 1015.20 1014.85 1014.66 1014.74 1014.53 1014.22 1014.46 1014.84 1014.97 1015.05 1014.41 1012.18 1012.58 1012.91 1013.44 1014.53 1015.97 1017.43 1019.08 1020.45 1021.52 1022.34 1022.75 1022.99 1023.31 1023.67 1023.71 1023.71 1023.80 1023.65 1023.60 1023.38 1023.03 1022.51 1022.07 1021.31 1020.62 1020.27 1019.65 1019.07 1018.28 1017.32
1016.00 1015.56 1015.19 1014.81 1014.97 1014.74 1015.09 1014.41 1014.21 1014.32 1014.26 1013.60 1014.10 1012.12 1012.90 1013.28 1013.97 1015.11 1016.44 1018.06 1019.64 1020.84 1021.69 1022.75 1023.06 1023.29 1023.70 1024.08 1024.08 1024.20 1024.19 1024.04 1023.93 1023.63 1023.08 1022.80 1022.38 1021.71 1021.23 1020.64 1019.98 1019.41 1018.79 1017.88
1016.15 1015.97 1015.76 1015.16 1014.32 1014.37 1014.43 1014.07 1013.86 1013.94 1013.74 1013.03 1012.16 1012.22 1012.68 1013.58 1014.41 1015.75 1016.71 1017.97 1019.45 1021.11 1022.00 1022.83 1023.26 1023.75 1024.18 1024.47 1024.53 1024.60 1024.57 1024.41 1024.27 1023.69 1023.71 1023.53 1023.03 1022.61 1021.95 1021.29 1020.62 1019.87 1019.26 1018.68
1016.39 1015.98 1015.82 1015.11 1014.54 1014.34 1013.93 1013.64 1013.44 1013.38 1012.87 1012.81 1011.24 1012.23 1012.49 1013.45 1014.29 1015.40 1017.13 1018.77 1019.91 1021.29 1022.22 1023.08 1023.58 1024.05 1024.57 1024.74 1024.83 1024.96 1025.04 1024.86 1024.67 1024.46 1024.48 1024.33 1023.78 1023.45 1022.86 1022.09 1021.33 1020.65 1019.90 1019.27
1016.71 1016.23 1015.82 1014.90 1014.51 1014.18 1013.73 1013.22 1012.99 1012.83 1012.63 1012.35 1011.93 1011.90 1013.33 1014.61 1015.32 1016.48 1017.66 1018.81 1020.14 1021.38 1022.52 1023.46 1024.06 1024.41 1024.96 1025.01 1025.12 1025.32 1025.28 1025.15 1025.20 1025.14 1025.23 1025.03 1024.52 1024.05 1023.29 1022.40 1021.62 1020.92 1020.52 1020.19
1016.72 1016.52 1016.19 1014.81 1014.71 1014.62 1013.98 1011.86 1012.30 1012.11 1012.00 1012.20 1012.38 1012.55 1014.12 1015.16 1015.94 1016.95 1018.05 1019.21 1020.47 1021.79 1022.95 1023.77 1024.30 1024.89 1025.19 1025.35 1025.53 1025.60 1025.61 1025.57 1025.61 1025.67 1025.56 1025.25 1024.88 1024.11 1023.32 1022.92 1022.52 1022.08 1021.41 1021.04
1015.97 1016.22 1016.15 1015.02 1015.44 1014.31 1012.03 1012.14 1012.32 1012.33 1012.03 1012.40 1013.16 1013.93 1014.88 1015.84 1017.23 1018.19 1018.95 1019.80 1021.11 1022.35 1023.39 1024.07 1024.75 1025.14 1025.38 1025.62 1025.74 1025.82 1025.82 1025.82 1025.88 1025.81 1025.74 1025.54 1025.07 1024.55 1024.17 1023.72 1023.21 1022.76 1022.22 1021.78
1014.51 1015.23 1015.41 1015.12 1014.48 1013.37 1012.24 1012.66 1012.91 1012.80 1012.27 1012.52 1013.52 1014.93 1016.31 1017.39 1018.23 1019.53 1020.20 1020.86 1021.81 1022.95 1023.86 1024.57 1025.09 1025.35 1025.51 1025.61 1025.69 1025.68 1025.85 1025.93 1025.98 1026.10 1026.12 1026.02 1025.79 1025.59 1025.04 1024.33 1023.87 1023.53 1023.10 1022.44
1013.80 1014.14 1014.88 1014.69 1014.00 1013.09 1012.12 1012.70 1013.03 1013.41 1013.41 1013.42 1014.15 1015.61 1016.94 1018.03 1018.88 1019.49 1020.68 1021.65 1022.81 1023.60 1024.31 1024.88 1025.20 1025.41 1025.56 1025.66 1025.63 1025.78 1026.16 1026.33 1026.51 1026.65 1026.79 1026.79 1026.60 1026.16 1025.72 1025.25 1024.85 1024.44 1023.84 1023.25
1013.40 1013.57 1013.35 1013.46 1013.46 1012.71 1012.48 1013.30 1013.75 1014.29 1014.28 1014.41 1015.06 1016.12 1017.34 1018.30 1019.15 1020.06 1021.24 1022.52 1023.30 1023.98 1024.59 1025.04 1025.36 1025.62 1025.81 1025.86 1025.87 1026.18 1026.54 1026.80 1027.08 1027.18 1027.22 1027.18 1026.92 1026.43 1026.35 1025.97 1025.57 1024.90 1024.37 1023.79
1012.54 1012.60 1012.70 1013.40 1013.51 1013.04 1012.89 1014.08 1014.20 1014.01 1014.76 1015.20 1016.00 1016.73 1017.71 1018.99 1020.02 1020.93 1021.84 1022.78 1023.57 1024.15 1024.64 1025.12 1025.47 1025.85 1026.10 1026.21 1026.29 1026.60 1026.83 1027.17 1027.33 1027.44 1027.49 1027.49 1027.45 1027.24 1026.95 1026.38 1025.89 1025.39 1024.86 1024.29
1012.22 1011.54 1011.96 1012.59 1012.41 1012.74 1012.95 1013.75 1014.26 1014.68 1015.10 1016.09 1016.67 1017.50 1018.10 1019.23 1020.30 1021.29 1022.20 1023.09 1023.71 1024.23 1024.71 1025.24 1025.64 1026.05 1026.36 1026.46 1026.65 1026.94 1027.28 1027.37 1027.56 1027.64 1027.79 1028.03 1028.03 1027.71 1027.17 1026.65 1026.12 1025.55 1025.28 1024.99
1011.82 1011.82 1011.84 1012.57 1012.72 1013.15 1013.88 1014.60 1015.03 1015.47 1015.99 1016.76 1017.35 1017.93 1018.46 1019.41 1020.52 1021.50 1022.44 1023.14 1023.79 1024.38 1024.89 1025.38 1025.85 1026.28 1026.57 1026.80 1027.01 1027.16 1027.34 1027.61 1027.73 1027.97 1028.17 1028.22 1027.99 1027.86 1027.55 1026.99 1026.77 1026.44 1025.99 1025.71
1012.08 1012.33 1012.24 1012.74 1013.19 1013.84 1014.36 1014.80 1015.44 1016.15 1016.88 1017.57 1018.11 1018.43 1018.82 1019.60 1020.80 1021.61 1022.55 1023.32 1023.99 1024.58 1025.10 1025.60 1026.07 1026.52 1026.90 1027.17 1027.36 1027.58 1027.62 1027.69 1027.91 1028.23 1028.36 1028.37 1028.24 1028.17 1028.03 1027.92 1027.46 1027.17 1027.09 1026.79
1011.91 1012.16 1012.26 1011.91 1012.15 1012.79 1013.43 1014.68 1015.72 1016.52 1017.36 1017.99 1018.36 1019.13 1019.69 1020.07 1020.98 1021.93 1022.83 1023.49 1024.13 1024.83 1025.45 1025.89 1026.38 1026.87 1027.37 1027.60 1027.85 1027.99 1028.00 1028.05 1028.27 1028.54 1028.72 1028.76 1028.69 1028.71 1028.50 1028.26 1028.35 1028.39 1028.07 1027.70
Wind_Speed
3 5 10 13 8 3 3 3 7 8 9 5 7 12 11 13 7 10 7 9 11 12 11 13 14 15 15 17 17 18 17 17 14 12 9 5 7 6 6 9 13 13 12 13
3 8 12 3 6 6 9 9 11 7 6 7 8 16 12 7 5 6 7 8 10 9 11 12 13 14 16 15 16 16 16 16 13 10 9 5 7 5 4 7 9 12 14 13
7 2 5 8 5 8 6 8 9 8 7 6 8 6 5 6 7 7 8 8 9 8 8 9 10 12 12 14 14 14 14 15 14 14 9 7 4 5 5 9 9 10 11 11
6 5 6 7 6 8 6 11 11 8 8 4 5 7 8 4 5 5 5 6 6 6 6 6 6 8 10 10 10 11 12 14 13 14 11 13 8 8 8 9 9 9 10 12
5 5 5 8 10 8 6 5 6 7 8 5 4 6 2 6 2 4 6 6 5 5 4 4 8 9 10 11 11 11 12 13 13 13 12 9 9 8 8 9 13 11 9 10
3 1 4 6 5 8 2 1 2 3 3 7 9 9 4 7 7 8 9 8 7 5 2 5 7 7 9 10 11 10 11 11 12 11 11 12 12 12 10 11 10 10 9 9
2 7 4 4 5 3 5 3 3 3 3 5 4 6 11 8 10 10 14 12 9 4 2 4 7 10 11 12 13 12 13 12 13 13 13 12 11 11 11 11 9 13 10 10
3 3 6 5 8 4 7 7 5 5 4 3 3 7 4 4 7 7 10 11 8 5 2 5 7 9 10 12 13 14 15 14 15 14 14 12 13 9 8 10 9 9 9 11
4 5 1 4 3 5 4 6 2 4 1 5 6 7 5 9 7 9 12 12 10 5 4 5 7 8 10 12 13 13 14 14 15 15 13 13 13 13 12 13 11 10 11 11
3 8 5 2 4 2 6 6 3 2 5 7 6 8 9 10 14 13 15 14 11 10 7 5 6 8 9 9 10 11 13 14 14 13 12 12 13 12 12 11 12 13 12 13
1 2 2 1 6 10 4 4 2 2 3 4 7 7 5 11 13 17 17 15 12 11 8 5 6 7 8 8 10 11 11 12 13 13 13 13 13 13 13 12 13 13 14 14
4 4 5 8 0 4 3 5 8 7 7 6 6 11 1 5 7 12 10 8 10 10 8 6 6 7 8 9 9 10 10 11 11 11 11 12 12 12 13 12 13 14 14 14
2 3 6 5 2 2 6 11 12 5 5 16 6 8 2 3 6 7 11 11 10 10 9 6 6 7 7 8 9 9 9 10 10 10 12 12 12 13 13 13 13 14 14 14
4 4 8 12 11 1 7 9 11 11 6 12 18 21 8 6 9 10 13 14 14 9 8 6 6 6 6 6 8 8 9 9 10 11 11 11 12 12 11 11 12 14 15 15
5 11 10 13 15 13 15 13 12 15 17 12 19 17 10 10 11 9 10 13 13 10 8 6 5 5 5 5 7 8 8 9 10 10 11 11 11 11 11 12 12 13 15 16
2 5 3 13 11 13 17 16 14 16 15 19 21 22 2 2 8 10 12 14 12 10 9 7 6 6 5 6 8 8 8 9 9 10 10 10 10 10 12 12 13 14 15 16
5 4 4 15 4 2 9 21 19 17 18 16 18 17 7 7 8 10 12 11 11 10 8 7 7 5 5 6 6 8 8 9 9 9 10 11 11 12 13 13 13 13 14 14
9 6 6 9 3 10 6 1 3 12 13 9 4 4 6 4 7 9 8 10 11 10 9 9 7 6 5 4 7 8 8 9 9 11 11 12 12 12 13 12 12 13 12 13
18 12 7 6 8 11 11 6 7 7 5 9 7 7 9 10 8 4 6 7 9 9 9 8 6 5 5 6 6 9 10 10 11 11 11 11 11 11 12 12 13 12 11 12
14 15 10 5 6 9 2 3 4 3 7 6 9 11 12 10 6 4 10 9 10 11 9 8 7 7 7 6 8 9 9 10 10 10 10 9 9 10 11 12 11 11 10 11
6 5 17 13 7 8 3 8 4 4 3 8 11 13 13 8 1 7 13 11 12 11 11 9 7 7 6 7 8 9 8 9 8 8 8 9 10 11 11 10 10 10 11 11
11 6 5 6 7 12 11 6 8 3 4 7 7 10 11 6 10 12 13 14 13 13 12 10 9 7 7 6 7 7 7 5 6 7 9 9 9 8 9 10 10 11 11 12
7 7 6 9 6 1 8 2 4 4 7 6 8 6 11 12 10 14 14 13 12 12 10 9 8 8 7 7 7 7 5 5 6 7 7 7 9 9 9 11 11 10 12 11
3 2 3 3 5 6 6 5 4 3 5 6 4 7 11 10 14 14 12 12 11 10 9 9 9 8 7 6 6 6 5 5 6 6 6 7 8 9 10 9 10 10 10 10
3 5 7 2 1 3 6 6 8 7 6 7 6 6 12 15 15 15 13 13 11 10 9 8 8 8 8 7 6 5 4 6 6 6 6 7 7 9 8 10 11 11 12 13
7 5 6 4 6 1 2 13 12 11 9 10 14 10 10 15 15 16 11 11 11 10 9 9 9 9 8 8 7 6 6 6 6 6 5 6 6 6 7 7 8 18 19 21
Wind_Direction
168 189 206 221 201 125 108 271 282 272 272 284 275 292 290 291 28 358 27 89 81 69 63 53 46 41 38 38 33 29 27 23 19 14 3 359 8 8 18 14 8 6 358 353
129 240 227 170 182 226 254 272 273 290 267 285 294 298 314 61 62 42 83 85 89 84 61 50 44 42 40 36 31 28 28 23 23 18 1 340 330 347 12 10 1 5 354 348
193 211 145 182 186 218 238 242 255 265 307 271 315 286 163 82 89 84 80 98 93 84 75 56 46 39 35 35 28 26 25 23 23 13 7 359 335 336 354 355 351 352 354 342
233 234 156 161 219 192 244 230 246 267 308 294 2 298 212 162 104 89 104 102 102 98 91 78 61 52 43 39 31 30 25 22 19 15 13 13 4 350 346 334 336 339 355 340
220 174 175 204 231 183 240 186 256 275 274 299 212 256 160 154 208 181 164 150 143 127 119 82 40 37 31 20 22 26 22 23 16 11 10 5 359 346 337 337 339 336 337 329
254 270 215 208 210 188 106 196 33 33 261 256 225 228 167 188 200 184 185 183 176 174 87 54 49 36 32 24 18 16 22 20 12 7 4 5 359 349 344 339 335 334 331 322
291 237 250 190 230 162 183 149 283 254 203 268 350 225 257 186 188 191 187 188 186 155 79 35 32 27 20 17 20 14 12 16 11 10 2 360 358 348 341 341 339 330 326 326
200 275 185 163 208 172 177 187 198 251 220 283 331 247 259 168 169 181 183 188 177 163 140 63 39 28 17 18 18 16 3 11 7 8 357 356 354 352 346 341 334 323 324 319
187 252 246 186 157 182 156 198 196 261 179 266 241 252 205 169 191 189 195 189 192 180 102 58 38 29 22 17 18 8 1 5 5 2 355 354 349 353 346 340 338 331 327 324
287 270 219 150 123 78 207 148 158 102 246 243 232 252 245 213 220 210 212 207 195 147 133 83 45 33 28 21 14 14 9 6 360 359 356 352 352 349 346 344 343 341 338 336
36 280 298 101 207 196 164 204 182 217 193 265 275 254 209 219 217 207 210 208 191 149 126 96 56 45 34 22 19 16 13 7 6 2 358 355 356 352 353 352 353 349 346 348
212 189 243 249 42 349 316 246 209 230 222 224 287 263 342 252 216 205 199 171 135 121 111 91 68 51 36 21 17 16 11 11 8 3 2 4 359 359 4 0 359 356 353 355
21 244 262 256 208 277 252 259 232 246 270 247 247 264 55 116 148 176 154 142 140 132 117 98 71 52 36 21 17 10 7 5 4 4 10 7 5 7 7 8 7 6 2 3
180 217 249 261 280 289 240 228 222 221 240 252 237 270 227 185 166 163 165 163 152 144 126 110 84 66 45 33 26 16 11 10 5 13 11 5 4 359 2 9 11 11 11 10
191 259 241 252 260 259 259 250 226 219 232 222 262 247 264 212 199 189 154 151 142 140 130 112 98 85 54 38 27 28 25 23 18 22 16 7 4 1 3 9 12 9 12 12
140 275 270 267 259 246 250 246 233 230 240 246 258 265 68 75 123 155 166 158 152 144 130 118 110 96 73 45 39 33 30 30 27 30 21 9 7 3 6 9 14 18 17 14
224 240 250 272 309 351 256 241 221 234 236 246 252 268 173 198 200 174 161 157 149 139 135 128 111 106 78 59 49 42 39 39 37 34 24 17 11 8 9 11 13 16 18 14
225 220 244 269 216 242 282 91 260 240 253 211 228 192 199 168 114 122 149 146 140 139 133 125 125 109 81 77 71 61 48 47 41 35 26 19 12 14 12 9 13 18 20 20
217 219 236 244 228 291 266 203 193 195 264 215 200 139 136 127 114 110 130 129 133 129 123 125 122 116 98 82 75 67 51 47 42 34 26 19 17 10 10 12 13 18 18 21
214 214 212 197 223 242 303 146 133 135 268 159 151 164 157 151 193 178 156 128 121 120 125 127 120 106 85 68 72 65 56 48 40 32 27 24 23 18 16 22 19 17 21 24
201 197 219 223 235 272 190 152 160 161 277 155 168 168 168 189 2 117 125 122 126 129 132 125 101 94 87 75 75 69 63 54 45 39 36 29 29 32 24 30 26 25 25 25
204 208 198 207 222 244 152 121 199 133 131 146 162 171 177 131 126 133 130 137 138 139 135 129 118 105 93 84 83 74 67 56 51 51 44 35 32 34 32 31 34 33 31 31
219 201 189 203 208 120 159 66 107 140 142 160 157 170 162 142 146 145 142 142 143 138 135 131 123 112 101 94 92 84 74 71 66 61 56 53 42 38 40 40 35 38 36 35
245 213 191 176 176 180 158 117 113 122 135 144 143 160 151 141 142 139 140 144 139 139 135 131 126 117 107 99 90 88 97 90 80 71 66 57 50 48 42 48 44 39 37 38
173 168 188 256 111 123 195 186 154 126 121 124 115 132 139 137 140 139 141 141 138 134 132 128 123 118 106 102 87 76 94 108 91 80 69 59 57 51 56 49 39 46 42 40
171 196 204 227 176 176 166 157 152 145 147 142 131 117 130 134 135 138 134 136 138 136 132 128 123 116 109 98 87 79 79 91 95 88 74 61 59 52 56 55 62 44 45 46